Cheraw, SC

10:19 AM EDT on July 24, 2016 (GMT -0400)
Cheraw

Weather History for KCQW - November, 2011

Change the Weather History Date:

Monday, November 7, 2011

  Actual Average (KFLO) Record (KFLO)
Temperature  
Mean Temperature 54 °F 58 °F  
Max Temperature 71 °F 70 °F 81 °F (1975)
Min Temperature 37 °F 46 °F 26 °F (1967)
Degree Days  
Heating Degree Days 11 8  
Month to date heating degree days 51  
Since 1 July heating degree days 168  
Cooling Degree Days 0 1  
Month to date cooling degree days 7  
Year to date cooling degree days 2049  
Growing Degree Days 4 (Base 50)    
Moisture  
Dew Point 47 °F    
Average Humidity 78    
Maximum Humidity 100    
Minimum Humidity 43    
Precipitation  
Precipitation 0.00 in 0.09 in 1.59 in (2006)
Month to date precipitation 0.62  
Year to date precipitation 37.85  
Sea Level Pressure  
Sea Level Pressure 30.36 in    
Wind  
Wind Speed 2 mph (NNE)    
Max Wind Speed 8 mph    
Max Gust Speed -    
Visibility 9 miles    
Events      
T = Trace of Precipitation, MM = Missing Value Source: NWS Daily Summary

Daily Weather History Graph

Daily Weather History Graph

Search for Another Location

Airport or City:

Trip Planner

Search our weather history database for the weather conditions in past years. The results will help you decide how hot, cold, wet, or windy it might be!

Date:

Astronomy

Nov. 07, 2011 Rise Set
Actual Time 6:45 AM EST 5:20 PM EST
Civil Twilight 6:19 AM EST 5:47 PM EST
Nautical Twilight 5:49 AM EST 6:17 PM EST
Astronomical Twilight 5:19 AM EST 6:46 PM EST
Moon 3:26 PM EST (11/7) 3:52 AM EST (11/7)
Length of Visible Light 11h 27m
Length of Day
10h 35m
Waxing Gibbous, 91% of the Moon is Illuminated
Nov 7
Waxing Gibbous
Nov 10
Full
Nov 18
Last Quarter
Nov 25
New
Dec 2
First Quarter

Hourly Weather History & Observations

Time (EST) Temp. Windchill Dew Point Humidity Pressure Visibility Wind Dir Wind Speed Gust Speed Precip Events Conditions
12:15 AM 46.4 °F - 46.4 °F 100% 30.40 in 10.0 mi Calm Calm - N/A   Clear
12:35 AM 44.6 °F - 44.6 °F 100% 30.40 in 3.0 mi Calm Calm - N/A   Clear
12:55 AM 44.6 °F - 44.6 °F 100% 30.39 in 1.8 mi Calm Calm - N/A   Clear
1:15 AM 44.6 °F - 44.6 °F 100% 30.39 in 8.0 mi North - - N/A   Clear
1:35 AM 44.6 °F - 44.6 °F 100% 30.39 in 1.8 mi Calm Calm - N/A   Clear
1:55 AM 44.6 °F 43.1 °F 44.6 °F 100% 30.39 in 10.0 mi North 3.5 mph - N/A   Clear
2:15 AM 44.6 °F - 44.6 °F 100% 30.38 in 10.0 mi Calm Calm - N/A   Clear
2:35 AM 44.6 °F - 44.6 °F 100% 30.38 in 10.0 mi Calm Calm - N/A   Clear
3:15 AM 42.8 °F - 42.8 °F 100% 30.38 in 9.0 mi Calm Calm - N/A   Clear
3:35 AM 42.8 °F 41.1 °F 42.8 °F 100% 30.37 in 10.0 mi NNE 3.5 mph - N/A   Clear
3:55 AM 42.8 °F 41.1 °F 42.8 °F 100% 30.38 in 9.0 mi NNE 3.5 mph - N/A   Clear
4:15 AM 44.6 °F - 44.6 °F 100% 30.37 in 10.0 mi Calm Calm - N/A   Clear
4:35 AM 44.6 °F - 44.6 °F 100% 30.38 in 10.0 mi Calm Calm - N/A   Clear
4:55 AM 44.6 °F - 44.6 °F 100% 30.38 in 10.0 mi Calm Calm - N/A   Clear
5:15 AM 41.0 °F - 41.0 °F 100% 30.39 in 10.0 mi Calm Calm - N/A   Clear
5:35 AM 39.2 °F - 39.2 °F 100% 30.39 in 9.0 mi Calm Calm - N/A   Clear
5:55 AM 37.4 °F - 37.4 °F 100% 30.39 in 8.0 mi Calm Calm - N/A   Clear
6:15 AM 39.2 °F - 39.2 °F 100% 30.39 in 9.0 mi Calm Calm - N/A   Clear
6:35 AM 39.2 °F - 39.2 °F 100% 30.39 in 8.0 mi Calm Calm - N/A   Clear
6:55 AM 39.2 °F - 39.2 °F 100% 30.39 in 8.0 mi Calm Calm - N/A   Clear
7:15 AM 39.2 °F - 39.2 °F 100% 30.39 in 7.0 mi Calm Calm - N/A   Clear
7:35 AM 42.8 °F - 42.8 °F 100% 30.40 in 7.0 mi Calm Calm - N/A   Clear
7:55 AM 46.4 °F - 46.4 °F 100% 30.40 in 10.0 mi Calm Calm - N/A   Clear
8:15 AM 48.2 °F - 46.4 °F 93% 30.40 in 10.0 mi North 3.5 mph - N/A   Clear
8:35 AM 50.0 °F - 48.2 °F 94% 30.41 in 10.0 mi North 4.6 mph - N/A   Clear
8:55 AM 51.8 °F - 48.2 °F 88% 30.41 in 10.0 mi North 3.5 mph - N/A   Clear
9:15 AM 53.6 °F - 48.2 °F 82% 30.41 in 10.0 mi NNE 4.6 mph - N/A   Clear
9:35 AM 55.4 °F - 48.2 °F 77% 30.41 in 10.0 mi NNE 5.8 mph - N/A   Clear
9:55 AM 57.2 °F - 48.2 °F 72% 30.41 in 10.0 mi North 3.5 mph - N/A   Clear
10:15 AM 59.0 °F - 50.0 °F 72% 30.40 in 10.0 mi North 3.5 mph - N/A   Clear
10:35 AM 60.8 °F - 51.8 °F 72% 30.40 in 10.0 mi NNW 3.5 mph - N/A   Clear
11:15 AM 64.4 °F - 51.8 °F 64% 30.39 in 10.0 mi NNE 5.8 mph - N/A   Clear
11:35 AM 66.2 °F - 51.8 °F 60% 30.38 in 10.0 mi ENE 3.5 mph - N/A   Clear
11:55 AM 66.2 °F - 50.0 °F 56% 30.37 in 10.0 mi Calm Calm - N/A   Clear
12:15 PM 68.0 °F - 50.0 °F 52% 30.36 in 10.0 mi North 4.6 mph - N/A   Clear
12:35 PM 68.0 °F - 48.2 °F 49% 30.35 in 10.0 mi North 6.9 mph - N/A   Clear
12:55 PM 69.8 °F - 48.2 °F 46% 30.34 in 10.0 mi ENE 3.5 mph - N/A   Clear
1:15 PM 69.8 °F - 48.2 °F 46% 30.33 in 10.0 mi NNE 5.8 mph - N/A   Partly Cloudy
1:35 PM 69.8 °F - 48.2 °F 46% 30.32 in 9.0 mi NNW 4.6 mph - N/A   Partly Cloudy
1:55 PM 69.8 °F - 48.2 °F 46% 30.31 in 7.0 mi Calm Calm - N/A   Scattered Clouds
2:15 PM 69.8 °F - 48.2 °F 46% 30.31 in 10.0 mi North 5.8 mph - N/A   Partly Cloudy
2:35 PM 71.6 °F - 48.2 °F 43% 30.30 in 10.0 mi NE 4.6 mph - N/A   Clear
2:55 PM 71.6 °F - 48.2 °F 43% 30.30 in 10.0 mi NNE 8.1 mph - N/A   Scattered Clouds
3:15 PM 69.8 °F - 48.2 °F 46% 30.29 in 10.0 mi NNE 6.9 mph - N/A   Scattered Clouds
3:35 PM 69.8 °F - 48.2 °F 46% 30.29 in 10.0 mi NNE 3.5 mph - N/A   Clear
3:55 PM 69.8 °F - 48.2 °F 46% 30.29 in 10.0 mi NE 3.5 mph - N/A   Clear
4:15 PM 69.8 °F - 48.2 °F 46% 30.29 in 10.0 mi Calm Calm - N/A   Clear
4:35 PM 68.0 °F - 48.2 °F 49% 30.28 in 10.0 mi North 3.5 mph - N/A   Clear
4:55 PM 66.2 °F - 51.8 °F 60% 30.28 in 10.0 mi North 3.5 mph - N/A   Light Drizzle
5:15 PM 60.8 °F - 51.8 °F 72% 30.29 in 10.0 mi Calm Calm - N/A   Clear
5:35 PM 59.0 °F - 51.8 °F 77% 30.29 in 10.0 mi Calm Calm - N/A   Clear
5:55 PM 59.0 °F - 50.0 °F 72% 30.29 in 10.0 mi Calm Calm - N/A   Clear
6:15 PM 57.2 °F - 50.0 °F 77% 30.30 in 10.0 mi Calm Calm - N/A   Clear
6:35 PM 57.2 °F - 50.0 °F 77% 30.30 in 10.0 mi Calm Calm - N/A   Clear
6:55 PM 57.2 °F - 50.0 °F 77% 30.30 in 10.0 mi Calm Calm - N/A   Clear
7:15 PM 55.4 °F - 50.0 °F 82% 30.30 in 10.0 mi Calm Calm - N/A   Clear
7:35 PM 55.4 °F - 50.0 °F 82% 30.31 in 10.0 mi Calm Calm - N/A   Clear
7:55 PM 55.4 °F - 50.0 °F 82% 30.31 in 10.0 mi Calm Calm - N/A   Clear
8:15 PM 55.4 °F - 50.0 °F 82% 30.31 in 10.0 mi Calm Calm - N/A   Clear
8:35 PM 55.4 °F - 50.0 °F 82% 30.31 in 10.0 mi Calm Calm - N/A   Clear
8:55 PM 53.6 °F - 50.0 °F 88% 30.32 in 10.0 mi Calm Calm - N/A   Clear
9:15 PM 51.8 °F - 48.2 °F 88% 30.31 in 10.0 mi Calm Calm - N/A   Clear
9:35 PM 50.0 °F - 48.2 °F 94% 30.31 in 10.0 mi Calm Calm - N/A   Clear
9:55 PM 50.0 °F - 48.2 °F 94% 30.31 in 10.0 mi Calm Calm - N/A   Clear
10:15 PM 48.2 °F - 48.2 °F 100% 30.31 in 10.0 mi Calm Calm - N/A   Clear
10:35 PM 48.2 °F - 48.2 °F 100% 30.31 in 10.0 mi Calm Calm - N/A   Clear
10:55 PM 48.2 °F - 48.2 °F 100% 30.31 in 10.0 mi Calm Calm - N/A   Clear
11:15 PM 50.0 °F - 48.2 °F 94% 30.30 in 10.0 mi Calm Calm - N/A   Clear
11:35 PM 48.2 °F - 48.2 °F 100% 30.30 in 10.0 mi Calm Calm - N/A   Clear
11:55 PM 46.4 °F - 46.4 °F 100% 30.30 in 10.0 mi Calm Calm - N/A   Clear